TimeEST,TemperatureF,Dew PointF,Humidity,Sea Level PressureIn,VisibilityMPH,Wind Direction,Wind SpeedMPH,Gust SpeedMPH,PrecipitationIn,Events,Conditions,WindDirDegrees,DateUTC
12:15 AM,-9999,-9999,N/A,30.15,2.0,Calm,Calm,-,N/A,,Overcast,0,2013-02-23 05:15:00
12:35 AM,-9999,-9999,N/A,30.16,2.5,NNW,3.5,-,N/A,,Overcast,340,2013-02-23 05:35:00
12:55 AM,-9999,-9999,N/A,30.16,2.5,North,3.5,-,N/A,,Overcast,350,2013-02-23 05:55:00
1:15 AM,-9999,-9999,N/A,30.17,2.5,Calm,Calm,-,N/A,,Overcast,0,2013-02-23 06:15:00
1:35 AM,-9999,-9999,N/A,30.15,2.0,Calm,Calm,-,N/A,,Light Drizzle,0,2013-02-23 06:35:00
1:55 AM,-9999,-9999,N/A,30.15,1.5,Calm,Calm,-,N/A,,Drizzle,0,2013-02-23 06:55:00
2:15 AM,-9999,-9999,N/A,30.12,2.0,Calm,Calm,-,0.01,,Light Drizzle,0,2013-02-23 07:15:00
2:35 AM,-9999,-9999,N/A,30.07,3.0,Calm,Calm,-,0.01,,Overcast,0,2013-02-23 07:35:00
2:55 AM,-9999,-9999,N/A,30.09,4.0,Calm,Calm,-,0.01,,Haze,0,2013-02-23 07:55:00
3:15 AM,-9999,-9999,N/A,30.07,5.0,North,4.6,-,N/A,,Haze,10,2013-02-23 08:15:00
3:35 AM,-9999,-9999,N/A,30.07,7.0,North,3.5,-,N/A,,Overcast,360,2013-02-23 08:35:00
3:55 AM,-9999,-9999,N/A,30.05,7.0,NE,4.6,-,N/A,,Overcast,40,2013-02-23 08:55:00
4:15 AM,-9999,-9999,N/A,30.06,7.0,Calm,Calm,-,N/A,Rain,Rain,0,2013-02-23 09:15:00
4:35 AM,-9999,-9999,N/A,30.06,4.0,North,6.9,-,0.01,Rain,Light Rain,350,2013-02-23 09:35:00
4:55 AM,-9999,-9999,N/A,30.07,4.0,Calm,Calm,-,0.03,Rain,Rain,0,2013-02-23 09:55:00
5:15 AM,-9999,-9999,N/A,30.07,4.0,Calm,Calm,-,0.02,Rain,Light Rain,0,2013-02-23 10:15:00
5:35 AM,-9999,-9999,N/A,30.08,7.0,Calm,Calm,-,0.02,Rain,Light Rain,0,2013-02-23 10:35:00
5:55 AM,-9999,-9999,N/A,30.07,4.0,Calm,Calm,-,0.03,Rain,Light Rain,0,2013-02-23 10:55:00
6:15 AM,-9999,-9999,N/A,30.05,4.0,Calm,Calm,-,0.02,Rain,Rain,0,2013-02-23 11:15:00
6:35 AM,-9999,-9999,N/A,30.05,3.0,Calm,Calm,-,0.05,Rain,Rain,0,2013-02-23 11:35:00
6:55 AM,-9999,-9999,N/A,30.01,5.0,Calm,Calm,-,0.06,Rain,Light Rain,0,2013-02-23 11:55:00
7:15 AM,-9999,-9999,N/A,30.03,5.0,North,4.6,-,N/A,Rain,Light Rain,350,2013-02-23 12:15:00
7:35 AM,-9999,-9999,N/A,30.02,4.0,Calm,Calm,-,0.01,Rain,Light Rain,0,2013-02-23 12:35:00
7:55 AM,-9999,-9999,N/A,30.01,4.0,North,3.5,-,0.01,,Drizzle,10,2013-02-23 12:55:00
8:15 AM,-9999,-9999,N/A,30.02,4.0,Calm,Calm,-,N/A,Rain,Light Rain,0,2013-02-23 13:15:00
8:35 AM,-9999,-9999,N/A,30.02,4.0,Calm,Calm,-,0.01,Rain,Light Rain,0,2013-02-23 13:35:00
8:55 AM,-9999,-9999,N/A,30.03,5.0,NNW,3.5,-,0.01,Rain,Light Rain,340,2013-02-23 13:55:00
9:15 AM,-9999,-9999,N/A,30.00,4.0,NE,4.6,-,0.02,Rain,Light Rain,50,2013-02-23 14:15:00
9:35 AM,-9999,-9999,N/A,29.99,5.0,North,3.5,-,0.02,Rain,Light Rain,360,2013-02-23 14:35:00
9:55 AM,-9999,-9999,N/A,30.00,7.0,North,5.8,-,0.02,,Overcast,350,2013-02-23 14:55:00
10:15 AM,-9999,-9999,N/A,29.99,7.0,Calm,Calm,-,N/A,,Light Drizzle,0,2013-02-23 15:15:00
10:35 AM,39.7,39.7,100,30.00,7.0,North,3.5,-,0.01,,Light Drizzle,360,2013-02-23 15:35:00
10:55 AM,40.1,40.1,100,30.00,10.0,Calm,Calm,-,0.01,,Overcast,0,2013-02-23 15:55:00
11:15 AM,40.3,40.3,100,30.00,10.0,Calm,Calm,-,N/A,,Overcast,0,2013-02-23 16:15:00
11:35 AM,41.4,41.4,100,29.99,10.0,Calm,Calm,-,N/A,,Overcast,0,2013-02-23 16:35:00
11:55 AM,42.8,42.8,100,29.98,10.0,Calm,Calm,-,N/A,,Overcast,0,2013-02-23 16:55:00
12:15 PM,43.2,43.2,100,29.97,10.0,Calm,Calm,-,N/A,,Overcast,0,2013-02-23 17:15:00
12:35 PM,44.1,42.6,95,29.97,10.0,Calm,Calm,-,N/A,,Overcast,0,2013-02-23 17:35:00
12:55 PM,44.6,41.2,88,29.96,10.0,Calm,Calm,-,N/A,,Overcast,0,2013-02-23 17:55:00
1:15 PM,45.5,41.5,86,29.97,10.0,Calm,Calm,-,N/A,,Overcast,0,2013-02-23 18:15:00
1:35 PM,46.8,42.3,84,29.94,10.0,Calm,Calm,-,N/A,,Overcast,0,2013-02-23 18:35:00
1:55 PM,48.2,43.0,82,29.95,10.0,Calm,Calm,-,N/A,,Overcast,0,2013-02-23 18:55:00
2:15 PM,48.4,43.0,82,29.93,10.0,Calm,Calm,-,N/A,,Overcast,0,2013-02-23 19:15:00
2:35 PM,48.4,43.0,82,29.92,10.0,Calm,Calm,-,N/A,,Overcast,0,2013-02-23 19:35:00
2:55 PM,48.9,43.2,80,29.91,10.0,Calm,Calm,-,N/A,,Overcast,0,2013-02-23 19:55:00
3:15 PM,50.0,43.5,78,29.90,10.0,Calm,Calm,-,N/A,,Overcast,0,2013-02-23 20:15:00
3:35 PM,50.2,43.7,78,29.90,10.0,Calm,Calm,-,N/A,,Overcast,0,2013-02-23 20:35:00
3:55 PM,50.7,43.9,77,29.90,10.0,Calm,Calm,-,N/A,,Mostly Cloudy,0,2013-02-23 20:55:00
4:15 PM,51.3,44.4,77,29.90,10.0,Calm,Calm,-,N/A,,Overcast,0,2013-02-23 21:15:00
4:35 PM,51.1,44.8,79,29.89,10.0,Calm,Calm,-,N/A,,Overcast,0,2013-02-23 21:35:00
4:55 PM,51.3,45.7,81,29.90,10.0,Calm,Calm,-,N/A,,Overcast,0,2013-02-23 21:55:00
5:15 PM,51.1,46.2,83,29.90,10.0,Calm,Calm,-,N/A,,Overcast,0,2013-02-23 22:15:00
5:35 PM,50.7,46.2,85,29.88,10.0,Calm,Calm,-,N/A,,Overcast,0,2013-02-23 22:35:00
5:55 PM,49.5,47.8,94,29.88,10.0,Calm,Calm,-,N/A,,Mostly Cloudy,0,2013-02-23 22:55:00
6:15 PM,48.0,48.0,100,29.87,10.0,Calm,Calm,-,N/A,,Clear,0,2013-02-23 23:15:00
6:35 PM,-9999,-9999,N/A,29.87,10.0,Calm,Calm,-,N/A,,Clear,0,2013-02-23 23:35:00
6:55 PM,-9999,-9999,N/A,29.86,10.0,Calm,Calm,-,N/A,,Clear,0,2013-02-23 23:55:00
7:15 PM,-9999,-9999,N/A,29.85,10.0,Calm,Calm,-,N/A,,Clear,0,2013-02-24 00:15:00
7:35 PM,-9999,-9999,N/A,29.85,10.0,Calm,Calm,-,N/A,,Clear,0,2013-02-24 00:35:00
7:55 PM,-9999,-9999,N/A,29.85,7.0,Calm,Calm,-,N/A,,Clear,0,2013-02-24 00:55:00
8:15 PM,-9999,-9999,N/A,29.85,10.0,Calm,Calm,-,N/A,,Clear,0,2013-02-24 01:15:00
8:35 PM,-9999,-9999,N/A,29.86,7.0,Calm,Calm,-,N/A,,Clear,0,2013-02-24 01:35:00
8:55 PM,-9999,-9999,N/A,29.85,7.0,Calm,Calm,-,N/A,,Clear,0,2013-02-24 01:55:00
9:15 PM,-9999,-9999,N/A,29.85,7.0,Calm,Calm,-,N/A,,Mostly Cloudy,0,2013-02-24 02:15:00
9:35 PM,-9999,-9999,N/A,29.85,7.0,Calm,Calm,-,N/A,,Overcast,0,2013-02-24 02:35:00
10:15 PM,-9999,-9999,N/A,29.85,10.0,Calm,Calm,-,N/A,,Overcast,0,2013-02-24 03:15:00
10:35 PM,-9999,-9999,N/A,29.84,10.0,Calm,Calm,-,N/A,,Overcast,0,2013-02-24 03:35:00
10:55 PM,-9999,-9999,N/A,29.84,10.0,Calm,Calm,-,N/A,,Overcast,0,2013-02-24 03:55:00
11:15 PM,-9999,-9999,N/A,29.84,7.0,Calm,Calm,-,N/A,,Overcast,0,2013-02-24 04:15:00
11:35 PM,-9999,-9999,N/A,29.83,10.0,Calm,Calm,-,N/A,,Overcast,0,2013-02-24 04:35:00
11:55 PM,-9999,-9999,N/A,29.83,10.0,Calm,Calm,-,N/A,,Overcast,0,2013-02-24 04:55:00